Location: Home
(42.5358°N, 72.7383°W)
Time: 12:28:17
(UTC-05:00)

A-11 Canister half - Pass Details

Date: 30 November 2021
Orbit: 1524 x 1684 km, 47.3° (Epoch: 19 January)

Event Time Altitude Azimuth Distance (km) Brightness Sun altitude
Rises 09:44:17 0° 295° (WNW) 4,859 11.2 20.4°
Reaches altitude 10° 09:47:54 10° 286° (WNW) 3,845 10.8 20.7°
Maximum altitude 09:55:58 31° 229° (SW) 2,519 10.5 21.4°
Drops below altitude 10° 10:03:50 10° 172° (S) 3,728 12.7 22.0°
Sets 10:07:18 0° 162° (SSE) 4,690 13.0 22.3°
